TIANWANG 1B (TW-1B)
1 40927U 15051C   19044.39644855  .00008138  00000-0  13853-3 0  9999
2 40927  97.1577  90.4445 0010200 118.4332 299.9176 15.51603204190573
TIANWANG 1A (TW-1A)
1 40928U 15051D   19044.44523899  .00002826  00000-0  72777-4 0  9999
2 40928  97.1607  78.4817 0011847 158.7400 308.4633 15.39977209189890
LAPAN A2
1 40931U 15052B   19043.98841653  .00000664  00000-0  34826-5 0  9995
2 40931   5.9990 233.0209 0012631 174.6314 185.4114 14.76597610182651
LQSAT
1 40958U 15057A   19044.44343516 -.00000001  00000-0  75966-5 0  9992
2 40958  97.9135 116.9336 0016916 285.1199  74.8136 14.73066583180369
CHUBUSAT 2
1 41338U 16012B   19043.86617568 +.00000291 +00000-0 +15942-4 0  9990
2 41338 031.0019 224.3729 0014007 296.7044 063.2158 15.00093207164001
CHUBUSAT 3
1 41339U 16012C   19044.51587113  .00000257  00000-0  13231-4 0  9997
2 41339  31.0098 218.5058 0013765 310.8177  49.1267 15.00272900164096
OUFTI-1
1 41458U 16025C   19044.44488224  .00000752  00000-0  42455-4 0  9998
2 41458  98.1084 124.9353 0169017  58.1582 303.5983 15.05403621153731
E-STAR-2
1 41459U 16025D   19044.43291938  .00001646  00000-0  88090-4 0  9990
2 41459  98.1093 124.6531 0169921  59.3339 302.4513 15.05081920153702
AAUSAT 4
1 41460U 16025E   19044.15927830  .00002284  00000-0  11852-3 0  9998
2 41460  98.1057 125.3164 0160345  54.1617 307.4391 15.06804835153761
NUSAT 1
1 41557U 16033B   19044.49199470  .00001087  00000-0  43886-4 0  9995
2 41557  97.4233 132.7353 0014566  26.6773 333.5212 15.26870061150987
BEESAT 4
1 41619U 16040W   19043.82233136  .00001203  00000-0  54406-4 0  9996
2 41619  97.3849 108.3079 0013106 104.5884 255.6807 15.22766264134701
PRATHAM
1 41783U 16059A   19044.16436413  .00000021  00000-0  13268-4 0  9997
2 41783  98.0858 106.4074 0034669  60.0503 300.4134 14.62972304127190
ALSAT 1N
1 41789U 16059G   19044.39646344  .00000050  00000-0  18470-4 0  9996
2 41789  98.0873 108.3597 0029450  49.9252 310.4530 14.64215618127318
NAYIF 1
1 42017U 17008BX  19044.13582864  .00001337  00000-0  56244-4 0  9994
2 42017  97.4191 112.4555 0004793 244.9362 115.1379 15.25136912110782
LILACSAT-1
1 42725U 98067ME  19044.30240987  .00130088  17570-4  37320-3 0  9993
2 42725  51.6309 192.7430 0001515 332.1383 100.6057 15.92938934 98590
MAX VALIER SAT
1 42778U 17036P   19044.47194626  .00000764  00000-0  36689-4 0  9995
2 42778  97.3724 104.7970 0011033 308.4080  51.6164 15.21763311 91194
